Zurück zum Katalog

STARLINK-32085

AktivKommunikationVLEO
NORAD 59685·PAYLOAD·🇺🇸 United States

Gestartet May 8, 2024 von Cape Canaveral Space Force Station

Loading…

Nächste Überflüge (nächste 24 Stunden)

TLE

AktuellSource: CelesTrak SupGP

Epoche: Sep 15, 2026, 02:14 UTC

1 59685C 24086D   26258.09354167 -.00010622  00000+0 -38469-3 0  2584
2 59685  43.0029  70.2648 0001437 269.2472 275.4395 15.27588195    14

Verfolge STARLINK-32085 in Echtzeit mit AllMySat

Download on the App Store